Regional Weather Roundup
Issued by NWS

Home | Current Version | Previous Version | Graphics & Text | Print | Product List | Glossary Off
Versions: 1 2 3 4 5 6 7 8 9 10 11 12 13 14 15 16 17 18 19 20 21 22 23 24 25 26 27 28 29 30 31 32 33 34 35 36 37 38 39 40 41 42 43 44 45 46 47 48 49 50

000
ASUS43 KFSD 232110
RWRSD

WEATHER ROUNDUP FOR SOUTH DAKOTA
NATIONAL WEATHER SERVICE SIOUX FALLS SD
400 PM CDT MON OCT 23 2017

NOTE: "FAIR" INDICATES FEW OR NO CLOUDS BELOW 12,000 FEET WITH NO
SIGNIFICANT WEATHER AND/OR OBSTRUCTIONS TO VISIBILITY.


SDZ001>005-009-010-012>017-232200-
NORTHWEST AND NORTH CENTRAL SOUTH DAKOTA

CITY           SKY/WX    TMP DP  RH WIND       PRES   REMARKS
BUFFALO          N/A     58  21  24 NW41G49   30.22S
FAITH            N/A     56  22  26 NW37G51   30.22R
MOBRIDGE       LGT RAIN  56  34  43 NW26G36     N/A
$$

SDZ012>016-024>037-041>051-057-063-072>074-232200-
SOUTHWEST AND SOUTH CENTRAL SOUTH DAKOTA

CITY           SKY/WX    TMP DP  RH WIND       PRES   REMARKS
RAPID CTY ARPT MOSUNNY   58  17  20 NW33G48   30.32R
PIERRE         PTSUNNY   57  34  41 N24G32    30.15S
CUSTER         MOSUNNY   47  12  24 NW18G29   30.35R
ELLSWORTH AFB  MOSUNNY   58  17  20 NW37G47   30.29F
PHILIP         MOSUNNY   61  24  24 NW32G45   30.23R
SPEARFISH      FAIR      54  18  24 NW26G37   30.36S
WINNER         LGT RAIN  55  32  41 N24G43    30.18R
$$

SDZ004>011-016>023-039-040-232200-
NORTHEAST SOUTH DAKOTA

CITY           SKY/WX    TMP DP  RH WIND       PRES   REMARKS
ABERDEEN       MOSUNNY   57  32  38 NW29G39   30.04S
WATERTOWN      MOSUNNY   53  31  42 NW26G37   29.99R
BROOKINGS      PTSUNNY   52  29  41 NW22G31   29.99R
SISSETON         N/A     57  30  35 NW29G41   29.96R
$$

SDZ017-020-022-023-036>040-048>070-232200-
SOUTHEAST SOUTH DAKOTA

CITY           SKY/WX    TMP DP  RH WIND       PRES   REMARKS
SIOUX FALLS    PTSUNNY   56  31  38 NW29G39   30.02R
HURON          MOSUNNY   56  32  40 NW29G37   30.06S
CHAMBERLAIN    PTSUNNY   58  32  38 NW21G32   30.14S
MITCHELL       PTSUNNY   58  29  33 NW24G39   30.09S
YANKTON        MOSUNNY   56  30  37 NW29G36   30.07R
$$

ABBREVIATIONS USED IN REMARKS
   TC - TEMPERATURE IN CELSIUS
  WCI - WIND CHILL INDEX
   HX - HEAT INDEX
  VSB - VISIBILITY





USA.gov is the U.S. government's official web portal to all federal, state and local government web resources and services.